"Pseudo-MPEC" for ZTF01ZB

Created 2018 Oct 14 2:18:22 UT using Find_Orb

Click here for an explanation of pseudo-MPECs

 
 Astrometry: 
     ZTF01ZB  C2018 10 06.28979201 02 07.20 -08 15 26.6          17.73RUNEOCPI41
     ZTF01ZB  C2018 10 06.29013901 02 11.54 -08 14 50.6          17.73RUNEOCPI41
     ZTF01ZB  C2018 10 06.29074901 02 19.11 -08 13 45.9          17.73RUNEOCPI41
     ZTF01ZB  C2018 10 06.29109601 02 23.41 -08 13 10.5          17.73RUNEOCPI41
     ZTF01ZB  C2018 10 06.32404101 09 23.05 -07 15 12.6                UNEOCPI41

Station data:
(I41) Palomar Mountain--ZTF  (N33.357340 W116.859780)  US/California. 1.2-m
   f/2.44 Oschin Schmidt + CCD.

Orbital elements:  ZTF01ZB
   Perigee 2018 Oct 5.889894 TT = 21:21:26 (JD 2458397.389894)
Epoch 2018 Oct  6.0 TT = JDT 2458397.5                        AutoNEOCP
M  46.18681                         (J2000 equator)
n 419.47731301     Peri.  168.44393
a 38147.3629km     Node    27.54946
e   0.7853160      Incl.   20.05963
P1235.80m/0.858d   H   34.3     G   0.15   q 8189.62762km  Q 68105.0982km
From 5 observations 2018 Oct. 6 (49.3 min); mean residual 2".19
Residuals in arcseconds: 
181006 I41  4.1+  .81+    181006 I41  2.0-  .21+    181006 I41  .19+  .03+    
181006 I41  2.2+  .07+    181006 I41  4.5-  1.1-    

Ephemerides (geocentric):
Date (UTC) HH   RA              Dec         delta   r     elong  mag
---- -- -- --  -------------   -----------  ------ ------ -----  ---
2018 10 14 02  01 22 20.168   -02 11 25.10   67677 0.9980 169.7 18.2
2018 10 14 03  01 35 29.497   -00 59 27.30   66373 0.9980 169.7 18.2
2018 10 14 04  01 49 21.462   +00 16 39.56   64152 0.9980 168.6 18.2
2018 10 14 05  02 04 27.270   +01 39 25.86   60960 0.9979 166.3 18.1
2018 10 14 06  02 21 33.070   +03 12 29.16   56708 0.9979 163.0 18.1
2018 10 14 07  02 41 56.197   +05 01 37.85   51258 0.9978 158.5 18.0
2018 10 14 08  03 08 06.501   +07 17 16.43   44392 0.9978 152.3 17.9
2018 10 14 09  03 45 59.405   +10 20 51.16   35747 0.9977 143.1 17.7
2018 10 14 10  04 55 28.337   +15 03 20.86   24672 0.9976 126.1 17.3
2018 10 14 11  09 02 47.926   +19 04 31.11   10718 0.9974  68.2 17.8
2018 10 14 12  19 29 18.921   -20 03 25.60   15860 0.9975  90.1 17.6
2018 10 14 13  21 50 21.000   -17 24 12.05   28973 0.9976 122.9 17.8
2018 10 14 14  22 46 14.985   -14 29 35.71   39078 0.9976 136.2 18.1
2018 10 14 15  23 20 02.728   -12 16 33.52   47032 0.9977 144.4 18.2
2018 10 14 16  23 44 28.241   -10 29 00.98   53359 0.9977 150.2 18.3
2018 10 14 17  00 03 57.892   -08 57 09.28   58360 0.9978 154.9 18.4
2018 10 14 18  00 20 33.624   -07 35 16.38   62219 0.9978 158.7 18.4
2018 10 14 19  00 35 21.785   -06 19 46.68   65054 0.9978 162.0 18.4
2018 10 14 20  00 49 03.573   -05 08 10.84   66941 0.9978 164.8 18.4
2018 10 14 21  01 02 07.830   -03 58 34.37   67925 0.9978 167.1 18.3
2018 10 14 22  01 14 57.420   -02 49 19.15   68029 0.9978 168.9 18.3
2018 10 14 23  01 27 53.106   -01 38 50.44   67255 0.9978 169.8 18.2
2018 10 15 00  01 41 16.639   -00 25 24.90   65586 0.9977 169.6 18.2
2018 10 15 01  01 55 34.249   +00 53 04.01   62982 0.9977 168.2 18.1
2018 10 15 02  02 11 21.970   +02 19 28.57   59376 0.9977 165.7 18.1
2018 10 15 03  02 29 35.798   +03 58 08.21   54661 0.9976 162.0 18.0
2018 10 15 04  02 51 54.846   +05 56 16.44   48672 0.9976 156.9 17.9
2018 10 15 05  03 21 45.433   +08 27 31.47   41144 0.9975 149.8 17.8
2018 10 15 06  04 08 16.000   +12 01 47.22   31620 0.9974 138.4 17.5
2018 10 15 07  05 50 13.756   +17 46 12.40   19295 0.9973 113.8 17.2
2018 10 15 08  14 21 32.392   -03 16 02.39    8401 0.9972  16.1 25??
2018 10 15 09  20 48 16.657   -19 25 02.03   21559 0.9972 107.5 17.6
2018 10 15 10  22 17 32.671   -16 05 32.03   33356 0.9973 128.5 17.9
2018 10 15 11  23 01 48.062   -13 29 16.11   42507 0.9974 139.1 18.2
2018 10 15 12  23 30 59.411   -11 27 44.73   49757 0.9974 146.2 18.3
2018 10 15 13  23 53 04.780   -09 47 11.26   55521 0.9975 151.5 18.4
2018 10 15 14  00 11 13.666   -08 19 43.29   60044 0.9975 155.8 18.4
2018 10 15 15  00 26 59.781   -07 00 38.59   63478 0.9975 159.4 18.4
2018 10 15 16  00 41 17.062   -05 46 52.65   65924 0.9975 162.5 18.4
2018 10 15 17  00 54 40.674   -04 36 12.58   67442 0.9975 165.2 18.4
2018 10 15 18  01 07 36.472   -03 26 52.04   68070 0.9975 167.5 18.3
2018 10 15 19  01 20 26.082   -02 17 15.55   67820 0.9975 169.1 18.3
2018 10 15 20  01 33 30.299   -01 05 46.34   66689 0.9975 169.9 18.2
2018 10 15 21  01 47 12.211   +00 09 26.23   64649 0.9975 169.5 18.1
2018 10 15 22  02 02 01.200   +01 30 43.63   61650 0.9974 167.8 18.1
2018 10 15 23  02 18 39.707   +03 01 26.40   57612 0.9974 164.9 18.1
2018 10 16 00  02 38 17.114   +04 46 48.94   52407 0.9974 160.8 18.0
2018 10 16 01  03 03 03.780   +06 56 01.18   45837 0.9973 155.1 17.9